Temperature
10 11 10 10 10 10 10 10 10 10 10 13 13 13 14 15 15 15 15 15 15 15 14 14 13 13 12 12 11 10 10 9 9 8 8 7 7 6 6 5 5 5 4 4
10 10 10 10 10 10 10 11 10 10 10 12 13 14 13 14 15 15 16 16 16 16 15 14 14 13 12 11 11 10 9 9 8 8 7 7 6 6 5 5 4 4 4 3
9 10 10 9 10 10 10 9 10 11 12 12 12 11 12 14 15 16 17 17 16 16 16 15 14 13 12 11 10 10 9 8 8 7 7 6 6 5 5 4 4 4 3 3
8 9 9 11 11 11 11 10 10 10 11 12 12 14 15 15 15 16 16 16 16 16 15 14 14 12 11 10 10 9 8 8 7 7 6 6 5 5 4 4 4 3 3 2
7 8 8 9 10 10 10 10 10 11 11 11 12 12 12 15 15 16 16 16 15 15 14 14 13 12 11 10 9 8 8 7 7 6 6 5 5 5 4 3 3 3 2 2
6 8 8 10 11 10 11 11 11 10 11 10 9 10 11 15 15 15 15 15 14 14 14 13 12 11 10 9 8 8 7 7 6 6 5 5 4 4 3 3 2 2 2 1
6 7 8 9 10 10 11 11 12 12 11 10 9 12 14 14 14 14 14 14 13 13 12 12 11 10 9 8 8 7 7 6 6 5 5 4 4 3 3 2 2 2 1 1
6 7 8 9 8 10 11 13 14 13 13 12 13 13 13 13 13 13 13 12 12 12 11 10 10 9 8 8 7 6 6 5 5 5 4 4 3 2 2 2 1 1 1 0
8 9 9 10 11 13 14 14 14 15 15 14 14 13 13 13 13 12 12 11 11 10 10 9 8 8 7 7 6 6 5 5 4 4 3 3 2 2 2 1 1 0 -0 -0
7 7 8 10 12 13 14 15 15 15 15 14 14 14 13 12 12 11 11 10 10 9 9 8 7 7 6 6 5 5 5 4 4 3 3 2 2 1 1 1 0 -0 -1 -1
7 7 8 10 12 14 14 14 14 14 14 14 13 13 12 12 11 10 10 9 9 8 8 7 6 6 5 5 5 4 4 4 3 3 2 2 1 1 0 -0 -1 -1 -2 -2
8 8 8 10 14 14 13 13 14 13 13 13 12 12 12 11 10 10 9 8 8 7 7 6 6 5 5 4 4 4 3 3 2 2 1 1 1 0 -0 -1 -1 -2 -3 -3
11 12 12 13 13 13 13 13 13 12 12 12 11 11 11 10 9 9 8 7 7 6 6 5 5 4 4 4 3 3 2 2 2 1 1 0 -0 -1 -1 -1 -2 -2 -3 -4
11 11 10 11 12 12 12 12 12 11 11 11 10 10 10 9 8 8 7 7 6 5 5 4 4 4 3 3 2 2 2 1 1 0 -0 -1 -1 -1 -2 -2 -3 -3 -3 -4
10 11 11 11 11 11 11 11 10 10 10 9 9 9 9 8 7 7 6 5 5 4 4 4 3 3 2 2 2 1 1 1 0 -0 -1 -1 -2 -2 -3 -3 -4 -4 -4 -4
9 9 10 10 10 10 10 10 10 9 9 9 8 8 7 7 6 6 5 5 4 4 3 3 2 2 2 1 1 1 0 -0 -1 -1 -1 -2 -3 -3 -4 -4 -5 -5 -5 -6
8 7 8 8 9 9 9 9 9 9 8 8 7 7 6 5 5 5 4 4 3 3 3 2 2 1 1 1 0 0 -0 -1 -1 -2 -2 -3 -4 -4 -5 -5 -6 -6 -6 -7
9 9 9 9 9 9 8 8 8 7 7 6 6 5 5 5 4 4 3 3 2 2 2 1 1 1 0 0 -0 -1 -1 -2 -2 -3 -3 -4 -5 -5 -6 -6 -7 -7 -7 -7
7 8 8 8 8 8 7 7 6 6 6 5 5 4 4 4 3 3 2 2 2 1 1 0 0 -0 -0 -1 -1 -2 -2 -3 -3 -4 -4 -5 -6 -6 -7 -7 -7 -8 -8 -8
6 6 6 6 6 6 6 5 5 5 4 4 4 3 3 3 2 2 2 1 1 0 0 -0 -1 -1 -1 -2 -2 -3 -3 -4 -4 -5 -5 -6 -7 -7 -8 -8 -8 -8 -9 -9
5 5 5 5 4 4 4 4 4 4 3 3 3 3 2 2 1 1 1 0 -0 -1 -1 -1 -1 -2 -2 -3 -3 -4 -4 -5 -5 -6 -7 -7 -8 -8 -8 -9 -9 -9 -10 -10
3 3 3 3 3 3 3 3 3 2 2 2 2 1 1 1 0 -0 -0 -1 -1 -1 -2 -2 -2 -3 -3 -4 -4 -5 -5 -6 -6 -7 -7 -8 -8 -9 -9 -9 -10 -10 -10 -10
2 2 2 2 2 2 1 1 1 1 1 1 1 0 0 -0 -1 -1 -1 -2 -2 -2 -3 -3 -3 -4 -4 -5 -5 -6 -6 -7 -7 -8 -8 -9 -9 -9 -10 -10 -10 -10 -11 -11
1 1 1 1 1 1 0 0 0 -0 -0 -0 -1 -1 -1 -1 -2 -2 -2 -3 -3 -3 -3 -4 -4 -5 -6 -6 -6 -7 -7 -8 -8 -9 -9 -9 -10 -10 -10 -11 -11 -11 -11 -11
-0 -1 -0 -0 -0 -1 -1 -1 -1 -1 -1 -1 -2 -2 -2 -2 -3 -3 -3 -3 -4 -4 -4 -5 -5 -6 -6 -7 -7 -8 -8 -9 -9 -10 -10 -10 -10 -11 -11 -11 -11 -11 -12 -12
-2 -2 -1 -1 -2 -2 -2 -2 -2 -2 -2 -2 -2 -3 -3 -3 -4 -4 -4 -4 -5 -5 -6 -6 -6 -7 -7 -8 -8 -9 -9 -9 -10 -10 -10 -10 -11 -11 -11 -11 -12 -12 -12 -12
-2 -2 -2 -3 -3 -3 -3 -3 -3 -3 -3 -3 -3 -4 -4 -4 -4 -5 -5 -5 -6 -6 -7 -7 -7 -8 -8 -9 -9 -9 -10 -10 -10 -10 -11 -11 -11 -11 -12 -12 -12 -12 -12 -12
Wind_Speed
7 7 9 9 13 15 15 14 13 11 13 14 12 10 9 6 5 5 7 9 12 13 12 12 12 12 12 12 11 12 12 11 10 9 8 7 6 6 5 5 4 4 3 4
7 8 8 8 11 16 16 14 13 10 11 12 11 8 8 9 8 9 10 11 11 12 12 14 15 14 13 13 12 12 12 11 9 9 8 7 6 6 5 4 4 3 4 4
7 5 5 11 13 13 10 9 11 16 17 10 9 11 12 11 10 11 11 10 11 12 14 14 14 14 15 13 12 12 11 10 10 9 8 7 6 6 5 4 4 4 5 5
5 6 10 10 9 13 13 12 14 11 10 12 14 12 9 9 10 11 10 9 9 9 10 10 10 11 11 11 12 12 11 10 9 9 8 7 6 6 5 4 4 4 5 6
6 7 8 7 6 10 12 13 13 15 13 10 4 1 6 9 9 10 9 7 6 7 7 8 10 12 12 12 11 11 11 10 10 9 8 7 6 6 4 4 4 4 5 6
6 7 10 9 7 7 7 9 10 13 15 10 7 3 7 4 5 5 4 3 4 5 7 9 10 12 13 12 12 12 11 10 9 9 8 8 7 5 3 4 5 5 5 6
7 7 8 8 4 10 8 10 6 10 11 10 11 9 3 2 3 3 4 4 6 7 7 8 10 12 12 11 11 9 8 8 7 7 7 6 5 3 3 4 4 5 6 7
8 7 10 7 10 12 10 5 4 6 8 9 9 5 3 3 4 6 6 6 7 8 7 7 9 11 11 9 7 8 8 7 6 6 5 4 4 3 3 4 4 6 6 8
11 10 6 10 11 9 6 7 6 6 7 8 8 7 6 5 6 5 6 6 6 8 9 7 7 9 10 8 8 8 7 6 5 4 4 4 4 4 3 4 4 6 6 8
6 8 7 8 7 6 7 7 6 6 7 9 8 8 8 7 6 6 6 6 7 9 9 7 6 7 8 8 8 8 7 5 4 4 3 3 3 4 4 5 5 6 7 8
8 5 4 7 10 10 8 6 5 5 7 8 9 8 8 8 8 7 6 6 7 8 9 8 7 7 7 7 8 7 5 4 4 4 4 4 4 5 6 6 7 7 7 7
9 9 9 9 10 10 9 9 9 8 6 6 8 9 8 8 7 7 8 7 7 8 8 8 7 7 6 6 7 7 5 4 3 3 3 4 4 5 9 11 15 17 17 15
7 6 8 5 5 8 9 9 8 9 8 7 7 8 9 7 7 8 8 8 9 8 8 8 7 6 5 5 5 6 5 4 3 3 4 4 4 5 7 8 12 15 17 19
5 6 5 5 6 6 6 6 7 6 5 6 7 8 8 7 8 9 8 8 8 8 7 7 6 5 4 5 5 5 4 5 4 4 5 5 5 6 6 8 9 8 11 17
6 6 6 5 5 6 6 8 9 7 7 6 7 8 9 10 9 8 7 7 8 7 6 6 5 4 4 4 4 4 4 3 4 4 5 5 5 6 6 8 9 10 9 10
5 4 5 6 8 7 8 8 9 8 7 7 7 7 7 8 8 7 7 8 8 7 6 5 4 4 3 4 3 3 3 6 5 4 5 5 5 6 7 8 9 10 10 10
9 7 7 7 8 8 7 7 9 9 8 8 8 8 9 9 8 7 6 5 5 5 5 4 4 3 3 3 3 3 3 5 8 6 5 6 6 7 8 8 9 10 10 12
8 9 9 9 9 9 7 7 8 9 8 8 9 9 9 9 8 7 5 5 4 2 2 3 3 2 3 3 3 3 4 4 5 6 6 6 7 7 8 9 10 12 11 12
6 7 7 7 8 9 8 8 8 8 8 9 10 9 7 7 6 6 5 5 4 2 2 2 2 2 3 4 4 3 4 5 6 6 7 10 10 8 8 10 11 12 12 12
7 7 8 8 8 8 9 9 9 9 8 9 9 8 7 6 6 5 4 3 3 3 3 2 2 3 3 5 6 4 5 6 7 7 7 8 9 10 10 11 11 12 12 12
9 10 10 10 9 8 9 9 10 9 8 8 8 8 6 5 4 4 3 1 1 1 2 3 2 3 4 5 7 5 6 7 7 8 8 9 10 10 11 11 12 12 12 12
10 11 12 11 12 10 8 8 9 10 9 8 7 7 6 5 3 2 1 2 2 2 2 2 3 6 8 9 5 5 6 7 8 8 8 9 10 11 12 12 12 12 12 12
10 11 12 12 12 11 10 9 9 9 8 7 6 6 5 3 2 1 1 1 1 4 3 3 7 11 14 8 4 5 7 8 8 9 9 10 10 11 12 13 12 12 12 12
12 12 12 11 12 12 11 8 8 8 8 7 5 4 4 2 1 0 1 3 6 7 4 7 12 13 13 5 5 6 7 8 9 9 10 10 10 10 11 12 12 12 12 13
12 12 12 12 11 9 9 8 8 8 7 5 5 4 3 1 0 2 2 3 6 8 5 8 13 14 9 6 7 8 8 9 10 11 10 10 10 11 11 12 12 13 12 13
11 11 10 10 8 7 6 6 5 5 4 4 3 3 2 2 1 2 2 3 5 8 6 6 7 9 7 7 8 9 9 11 12 11 11 11 12 12 12 12 14 13 13 13
11 10 9 8 7 6 6 6 5 4 4 3 2 3 3 3 3 3 4 4 5 6 6 6 6 7 8 8 9 9 10 10 10 11 11 11 11 12 12 14 13 13 13 13
Wind_Direction
203 181 168 187 193 191 200 208 213 224 225 243 250 252 259 260 242 218 215 207 203 203 200 194 190 188 184 179 173 168 167 171 175 169 164 161 164 170 173 181 194 204 218 240
212 199 189 211 210 201 210 217 226 240 248 243 249 247 253 250 237 234 230 220 213 206 199 196 194 190 184 180 175 169 171 174 165 160 162 167 171 173 178 193 206 213 229 244
210 191 179 238 212 199 206 207 199 226 239 241 244 241 239 240 233 231 235 226 214 208 204 201 195 187 185 178 167 168 170 166 164 164 168 173 173 176 191 203 209 229 242 248
162 151 220 242 200 196 207 221 210 217 229 228 233 240 239 228 225 233 232 227 220 208 202 193 180 173 166 160 164 167 166 166 166 166 171 172 175 190 201 205 218 234 246 253
162 202 253 282 225 186 199 238 219 220 235 239 224 302 279 236 218 225 226 219 211 195 182 168 165 160 154 158 162 164 169 171 172 170 170 175 187 201 205 210 229 239 248 254
161 189 225 234 215 172 153 252 233 210 225 222 149 204 259 241 203 212 201 179 164 146 142 150 154 150 152 159 164 173 175 172 168 168 172 182 194 202 205 213 233 245 256 256
176 206 246 239 179 130 172 234 228 200 207 188 187 211 221 128 133 141 133 128 130 131 138 147 147 147 152 159 173 171 158 153 158 167 173 181 187 195 208 225 243 255 266 269
173 201 235 204 150 178 208 204 186 184 188 186 200 195 165 150 140 133 124 122 126 126 124 132 143 146 151 162 156 141 142 148 158 164 170 173 182 207 217 226 248 264 273 279
193 212 207 178 192 208 180 185 190 182 183 173 177 187 177 166 155 144 138 133 127 128 124 126 138 144 149 149 140 138 140 150 158 163 172 179 191 213 229 231 246 264 267 277
198 229 216 209 215 216 199 201 194 181 171 168 175 177 171 163 158 151 143 139 135 134 134 135 135 133 140 141 140 139 146 157 163 170 189 203 210 215 225 236 247 258 265 272
209 227 222 239 221 214 205 199 185 172 175 178 169 173 173 169 167 159 148 143 145 146 144 142 136 131 136 141 139 141 151 164 175 188 201 220 231 231 236 235 238 251 257 259
209 200 189 215 213 195 189 200 193 176 171 172 173 171 164 164 159 153 149 144 143 142 141 141 139 138 142 144 144 147 161 180 192 202 217 229 250 272 261 258 268 268 269 271
197 190 188 201 190 180 189 198 184 176 173 167 165 158 153 151 152 148 148 152 154 152 146 144 143 147 155 153 153 162 179 194 202 214 227 239 248 260 281 285 276 275 277 281
177 143 167 192 193 180 169 153 139 136 141 145 144 141 140 138 142 151 158 158 146 139 140 144 147 161 167 159 161 175 189 209 218 221 230 239 246 253 262 276 289 284 280 283
195 185 178 164 142 132 132 128 129 136 136 130 134 141 145 147 152 153 142 134 130 132 140 146 156 174 168 161 171 187 200 217 226 231 237 244 251 257 261 267 274 281 284 285
176 149 141 147 156 151 144 148 151 156 150 144 143 145 142 135 129 126 130 138 143 154 162 163 177 182 173 173 185 203 222 248 254 248 247 253 255 260 266 269 274 278 280 282
156 171 174 174 175 171 171 169 162 157 150 148 147 135 126 122 122 127 133 138 143 153 163 172 185 185 184 191 201 219 230 252 267 267 255 257 260 262 266 270 274 277 278 281
189 188 182 175 172 167 160 151 146 144 144 141 132 129 133 140 145 147 140 125 113 115 166 185 184 191 204 212 217 224 235 246 252 256 261 262 266 263 267 272 275 278 282 284
169 163 159 155 153 149 146 142 137 132 130 132 133 136 135 133 132 134 132 132 142 182 224 205 223 225 235 245 257 235 243 255 262 263 264 274 280 272 271 274 276 278 281 283
141 134 130 124 120 126 129 127 124 121 124 126 123 119 117 120 125 129 134 155 199 209 209 232 242 240 247 255 271 248 249 257 264 270 271 270 273 276 275 276 277 279 280 280
124 121 118 115 108 105 115 122 122 120 116 118 123 127 126 122 123 129 137 199 258 210 222 265 269 261 265 270 275 256 255 263 267 270 273 275 277 279 279 278 279 280 280 281
109 111 110 110 107 99 93 101 109 111 107 104 105 109 111 111 110 109 169 211 244 297 308 268 267 281 287 289 270 262 265 269 272 273 273 274 276 278 279 280 280 281 280 279
100 104 104 105 105 101 89 86 92 99 101 102 106 109 113 121 133 141 306 298 290 306 310 275 289 296 299 296 277 274 274 275 275 275 275 275 275 276 279 280 280 281 280 280
95 95 96 96 96 93 87 80 81 84 86 84 84 90 98 90 44 44 236 313 317 312 302 296 303 304 307 300 285 280 278 277 277 277 277 277 276 277 279 281 282 281 280 279
92 91 91 90 87 88 91 89 83 78 76 72 63 55 53 65 13 320 316 309 314 319 308 306 308 309 308 291 286 283 281 279 281 283 280 281 282 282 281 280 280 281 281 281
86 85 81 80 85 88 87 85 82 75 72 63 45 36 30 19 353 323 314 309 305 313 310 300 298 300 293 287 285 285 284 288 290 288 284 283 282 281 282 281 280 280 281 280
80 81 81 76 67 67 72 75 75 64 53 47 20 5 360 351 341 330 320 314 309 305 300 296 294 292 291 290 288 287 286 285 284 284 284 283 283 283 283 281 282 282 281 281
Height
1432 1433 1437 1439 1441 1446 1449 1448 1453 1450 1449 1439 1434 1433 1432 1432 1431 1432 1432 1433 1435 1437 1440 1443 1447 1451 1455 1460 1464 1469 1473 1476 1479 1483 1485 1487 1489 1490 1491 1491 1491 1491 1490 1489
1431 1431 1433 1435 1434 1436 1438 1439 1442 1442 1440 1430 1428 1429 1428 1427 1428 1428 1428 1429 1430 1432 1435 1437 1440 1444 1449 1453 1458 1463 1467 1471 1475 1478 1481 1483 1484 1485 1486 1486 1486 1485 1484 1483
1432 1429 1432 1434 1427 1430 1432 1431 1432 1433 1427 1423 1424 1424 1422 1422 1422 1423 1423 1425 1426 1427 1429 1432 1435 1438 1442 1447 1453 1458 1462 1466 1470 1473 1476 1478 1479 1480 1481 1481 1481 1480 1479 1477
1430 1432 1437 1417 1411 1414 1419 1419 1420 1418 1416 1416 1416 1415 1416 1417 1417 1417 1419 1420 1421 1423 1425 1427 1430 1434 1438 1443 1447 1452 1457 1461 1465 1468 1471 1473 1474 1475 1475 1475 1475 1474 1473 1471
1429 1429 1424 1416 1409 1410 1414 1413 1409 1411 1410 1409 1411 1413 1411 1411 1411 1413 1414 1416 1417 1419 1421 1424 1426 1430 1433 1438 1442 1447 1451 1456 1459 1463 1465 1467 1469 1470 1470 1469 1469 1468 1467 1465
1424 1423 1420 1407 1399 1399 1407 1410 1400 1401 1402 1404 1410 1416 1409 1406 1407 1408 1410 1412 1414 1416 1418 1420 1423 1426 1430 1433 1438 1442 1447 1451 1455 1458 1461 1462 1464 1464 1464 1464 1463 1461 1460 1458
1416 1415 1410 1398 1395 1399 1411 1403 1392 1392 1394 1399 1403 1403 1403 1403 1404 1406 1407 1409 1411 1413 1415 1418 1421 1424 1427 1431 1435 1439 1444 1448 1451 1454 1456 1458 1458 1459 1458 1457 1456 1455 1453 1451
1409 1411 1405 1390 1394 1395 1391 1387 1387 1388 1390 1393 1395 1398 1400 1401 1402 1404 1406 1408 1410 1412 1414 1416 1419 1422 1425 1429 1433 1437 1441 1444 1447 1450 1452 1453 1453 1453 1452 1451 1449 1447 1445 1442
1386 1385 1380 1380 1380 1380 1382 1384 1385 1386 1388 1391 1392 1394 1397 1399 1401 1402 1404 1406 1409 1411 1413 1415 1418 1422 1425 1428 1432 1435 1438 1441 1444 1446 1447 1447 1447 1447 1446 1444 1442 1440 1437 1434
1379 1377 1375 1375 1375 1377 1379 1381 1382 1384 1386 1388 1390 1392 1394 1396 1398 1401 1403 1405 1407 1409 1412 1415 1418 1421 1424 1427 1430 1433 1436 1438 1440 1441 1441 1442 1441 1441 1439 1437 1435 1432 1429 1426
1372 1370 1370 1370 1370 1372 1375 1377 1379 1381 1383 1385 1387 1389 1391 1394 1396 1399 1401 1404 1406 1409 1411 1414 1417 1420 1423 1426 1428 1430 1432 1434 1435 1436 1436 1436 1435 1434 1432 1431 1429 1425 1422 1419
1362 1361 1363 1362 1364 1367 1370 1372 1375 1377 1380 1382 1384 1386 1389 1391 1394 1397 1399 1402 1405 1408 1410 1413 1416 1419 1421 1424 1425 1427 1428 1429 1430 1430 1430 1429 1428 1426 1425 1423 1421 1418 1415 1412
1351 1353 1355 1357 1360 1363 1365 1368 1371 1373 1376 1379 1381 1384 1386 1389 1392 1395 1397 1400 1403 1406 1409 1412 1414 1417 1419 1421 1422 1423 1424 1424 1425 1424 1424 1422 1421 1418 1416 1414 1412 1410 1407 1404
1347 1349 1352 1354 1356 1359 1362 1364 1367 1370 1373 1376 1379 1381 1384 1387 1390 1392 1395 1399 1402 1405 1407 1410 1412 1414 1416 1417 1418 1419 1419 1419 1419 1418 1417 1415 1414 1411 1408 1404 1401 1398 1398 1395
1343 1346 1348 1350 1353 1356 1358 1361 1364 1367 1370 1374 1377 1379 1382 1385 1387 1391 1394 1397 1400 1403 1405 1407 1409 1411 1413 1413 1414 1414 1414 1413 1413 1411 1410 1408 1406 1403 1400 1397 1393 1389 1386 1384
1340 1342 1345 1347 1349 1352 1355 1358 1361 1364 1368 1371 1374 1377 1380 1383 1386 1389 1393 1395 1398 1400 1402 1405 1406 1408 1409 1409 1409 1409 1408 1407 1406 1404 1402 1400 1398 1395 1392 1389 1385 1381 1377 1374
1335 1338 1341 1344 1346 1349 1352 1356 1359 1362 1366 1369 1373 1376 1379 1382 1385 1388 1391 1393 1396 1398 1400 1401 1403 1404 1404 1404 1404 1403 1402 1401 1399 1397 1395 1392 1390 1387 1383 1380 1376 1372 1368 1366
1331 1334 1337 1340 1343 1346 1350 1354 1357 1361 1364 1368 1371 1374 1377 1380 1383 1386 1388 1391 1393 1395 1397 1398 1399 1399 1399 1399 1398 1396 1395 1393 1391 1389 1387 1384 1381 1378 1375 1371 1367 1363 1359 1356
1328 1331 1334 1337 1341 1344 1348 1352 1355 1359 1363 1366 1370 1373 1376 1379 1381 1384 1386 1388 1390 1392 1393 1394 1394 1394 1394 1393 1391 1390 1388 1386 1383 1381 1378 1375 1372 1369 1366 1362 1358 1354 1350 1346
1324 1328 1332 1335 1339 1343 1347 1350 1354 1358 1362 1366 1369 1372 1375 1377 1380 1382 1384 1386 1387 1388 1389 1389 1389 1388 1388 1386 1385 1383 1381 1378 1375 1372 1370 1366 1363 1359 1356 1353 1349 1345 1341 1337
1322 1326 1330 1334 1339 1343 1347 1350 1354 1358 1362 1365 1368 1371 1374 1376 1378 1380 1381 1383 1384 1384 1384 1384 1384 1383 1381 1379 1377 1375 1373 1370 1367 1364 1361 1357 1354 1350 1346 1343 1339 1335 1331 1327
1323 1326 1330 1335 1339 1343 1347 1351 1355 1359 1362 1365 1368 1370 1372 1374 1376 1378 1379 1380 1380 1380 1379 1379 1378 1376 1374 1372 1370 1367 1364 1361 1358 1355 1352 1348 1344 1340 1336 1332 1329 1325 1321 1317
1325 1329 1333 1337 1340 1344 1349 1353 1356 1360 1362 1365 1367 1369 1371 1373 1374 1375 1375 1376 1375 1375 1374 1373 1371 1370 1367 1365 1362 1359 1356 1353 1349 1346 1342 1338 1334 1330 1326 1322 1318 1314 1310 1306
1329 1332 1336 1340 1344 1347 1351 1355 1358 1361 1363 1365 1367 1369 1370 1371 1372 1372 1372 1371 1371 1370 1368 1367 1365 1362 1360 1357 1353 1350 1347 1343 1340 1336 1332 1328 1325 1321 1316 1312 1308 1304 1300 1296
1333 1337 1340 1344 1347 1351 1354 1357 1360 1362 1364 1366 1367 1368 1369 1369 1369 1368 1368 1367 1365 1364 1362 1360 1357 1355 1352 1348 1345 1342 1338 1334 1331 1327 1323 1319 1315 1310 1306 1302 1298 1294 1289 1286
1339 1342 1345 1349 1352 1355 1357 1359 1361 1363 1364 1365 1366 1367 1367 1366 1366 1365 1363 1362 1360 1357 1355 1352 1350 1347 1343 1340 1336 1333 1329 1325 1321 1317 1313 1309 1305 1300 1296 1292 1287 1283 1279 1275
1345 1348 1350 1353 1356 1358 1360 1361 1362 1363 1364 1364 1364 1364 1364 1363 1361 1360 1358 1356 1353 1351 1348 1345 1342 1339 1335 1332 1328 1324 1320 1316 1312 1308 1303 1299 1294 1290 1286 1282 1277 1273 1269 1265